San Antonio, TX

10:39 AM CDT on May 22, 2017 (GMT -0500)
San Antonio International

Weather History for KSAT - February, 2013

Change the Weather History Date:

Sunday, February 24, 2013

  Actual Average Record
Temperature  
Mean Temperature 56 °F 58 °F  
Max Temperature 70 °F 69 °F 90 °F (1904)
Min Temperature 41 °F 46 °F 25 °F (1965)
Degree Days  
Heating Degree Days 9 8  
Month to date heating degree days 128 251  
Since 1 July heating degree days 949 1269  
Cooling Degree Days 0 1  
Month to date cooling degree days 13 20  
Year to date cooling degree days 40 27  
Growing Degree Days 6 (Base 50)    
Moisture  
Dew Point 51 °F    
Average Humidity 75    
Maximum Humidity 93    
Minimum Humidity 57    
Precipitation  
Precipitation T in 0.06 in 1.06 in (1992)
Month to date precipitation 0.10 1.52  
Year to date precipitation 2.93 3.28  
Snow  
Snow 0.00 in - - ()
Month to date snowfall 0.0  
Since 1 July snowfall T  
Snow Depth 0.00 in    
Sea Level Pressure  
Sea Level Pressure 29.75 in    
Wind  
Wind Speed 9 mph (SE)    
Max Wind Speed 20 mph    
Max Gust Speed 25 mph    
Visibility 9 miles    
Events Rain    
T = Trace of Precipitation, MM = Missing Value Source: NWS Daily Summary

Daily Weather History Graph

Daily Weather History Graph

Search for Another Location

Airport or City:

Trip Planner

Search our weather history database for the weather conditions in past years. The results will help you decide how hot, cold, wet, or windy it might be!

Date:

Astronomy

Feb. 24, 2013 Rise Set
Actual Time 7:04 AM CST 6:30 PM CST
Civil Twilight 6:40 AM CST 6:54 PM CST
Nautical Twilight 6:12 AM CST 7:21 PM CST
Astronomical Twilight 5:45 AM CST 7:49 PM CST
Moon 5:42 PM CST (2/24) 6:00 AM CST (2/24)
Length of Visible Light 12h 13m
Length of Day
11h 25m
Waxing Gibbous, 99% of the Moon is Illuminated
Feb 24
Waxing Gibbous
Feb 25
Full
Mar 4
Last Quarter
Mar 11
New
Mar 19
First Quarter

Hourly Weather History & Observations

Time (CST) Temp. Windchill Dew Point Humidity Pressure Visibility Wind Dir Wind Speed Gust Speed Precip Events Conditions
12:51 AM 48.9 °F - 37.9 °F 66% 29.88 in 10.0 mi East 3.5 mph - N/A   Clear
1:51 AM 50.0 °F - 39.0 °F 66% 29.87 in 10.0 mi East 3.5 mph - N/A   Clear
2:51 AM 48.0 °F - 39.9 °F 74% 29.86 in 10.0 mi East 3.5 mph - N/A   Clear
3:51 AM 46.9 °F - 39.9 °F 77% 29.84 in 10.0 mi Calm Calm - N/A   Clear
4:51 AM 43.0 °F - 37.9 °F 82% 29.85 in 10.0 mi Calm Calm - N/A   Clear
5:51 AM 44.1 °F 42.5 °F 39.0 °F 82% 29.84 in 10.0 mi NW 3.5 mph - N/A   Clear
6:51 AM 42.1 °F 40.2 °F 37.9 °F 85% 29.84 in 10.0 mi NW 3.5 mph - N/A   Partly Cloudy
7:51 AM 45.0 °F 43.5 °F 41.0 °F 86% 29.85 in 10.0 mi NW 3.5 mph - N/A   Partly Cloudy
8:51 AM 53.1 °F - 42.1 °F 66% 29.86 in 10.0 mi East 4.6 mph - N/A   Partly Cloudy
9:51 AM 60.1 °F - 46.0 °F 60% 29.86 in 10.0 mi ESE 8.1 mph - N/A   Partly Cloudy
10:14 AM 60.8 °F - 48.2 °F 63% 29.89 in 10.0 mi SE 12.7 mph - N/A   Mostly Cloudy
10:51 AM 62.1 °F - 51.1 °F 67% 29.85 in 10.0 mi SSE 9.2 mph - N/A   Overcast
11:51 AM 64.0 °F - 53.1 °F 67% 29.83 in 10.0 mi South 12.7 mph - N/A   Overcast
12:23 PM 64.4 °F - 53.6 °F 68% 29.84 in 10.0 mi South 13.8 mph 19.6 mph N/A   Overcast
12:51 PM 66.0 °F - 53.1 °F 63% 29.78 in 10.0 mi SSE 11.5 mph - N/A   Overcast
1:51 PM 68.0 °F - 54.0 °F 61% 29.73 in 10.0 mi SSE 15.0 mph - N/A   Overcast
2:51 PM 69.1 °F - 54.0 °F 58% 29.70 in 10.0 mi SE 17.3 mph - N/A   Overcast
3:51 PM 70.0 °F - 55.9 °F 61% 29.66 in 10.0 mi SSE 15.0 mph 21.9 mph N/A   Mostly Cloudy
4:07 PM 68.0 °F - 55.4 °F 64% 29.69 in 10.0 mi SE 15.0 mph - N/A   Mostly Cloudy
4:51 PM 66.9 °F - 57.0 °F 70% 29.66 in 10.0 mi SSE 11.5 mph - N/A   Overcast
5:35 PM 66.2 °F - 57.2 °F 73% 29.69 in 9.0 mi SE 8.1 mph - N/A   Overcast
5:51 PM 64.9 °F - 59.0 °F 81% 29.66 in 8.0 mi SE 12.7 mph - N/A   Overcast
6:51 PM 64.0 °F - 59.0 °F 84% 29.66 in 9.0 mi SE 12.7 mph - 0.00 in   Overcast
7:32 PM 64.4 °F - 59.0 °F 83% 29.69 in 10.0 mi SE 9.2 mph - N/A   Overcast
7:51 PM 64.0 °F - 59.0 °F 84% 29.66 in 10.0 mi ESE 12.7 mph - N/A   Overcast
8:51 PM 63.0 °F - 60.1 °F 90% 29.65 in 8.0 mi ESE 13.8 mph - 0.00 in Rain Light Rain
9:51 PM 63.0 °F - 60.1 °F 90% 29.63 in 8.0 mi ESE 11.5 mph - N/A   Overcast
10:51 PM 62.1 °F - 60.1 °F 93% 29.61 in 6.0 mi ESE 11.5 mph - N/A   Overcast
11:23 PM 62.6 °F - 60.8 °F 94% 29.63 in 3.0 mi SE 11.5 mph - 0.00 in   Light Drizzle
11:51 PM 62.1 °F - 61.0 °F 96% 29.57 in 3.0 mi SE 10.4 mph - 0.00 in   Light Drizzle